Regional Weather Roundup
Issued by NWS

Home | Current Version | Previous Version | Text Only | Print | Product List | Glossary Off
Versions: 1 2 3 4 5 6 7 8 9 10 11 12 13 14 15 16 17 18 19 20 21 22 23 24 25 26 27 28 29 30 31 32 33 34 35 36 37 38 39 40 41 42 43 44 45 46 47 48 49 50

000
ASUS45 KBOU 291807
RWRCO

WEATHER ROUNDUP FOR COLORADO
NATIONAL WEATHER SERVICE DENVER/BOULDER CO
1200 PM MDT FRI MAY 29 2015

NOTE: "FAIR" INDICATES FEW OR NO CLOUDS BELOW 12000 FEET WITH NO
SIGNIFICANT WEATHER AND/OR OBSTRUCTIONS TO VISIBILITY.

COZ001>005-013-030-031-291900-
...NORTHWEST COLORADO...

CITY           SKY/WX    TMP DP  RH WIND       PRES   REMARKS
CRAIG          PTSUNNY   54  44  69 NE5       30.31S
HAYDEN         PTSUNNY   54  37  54 W9        30.31S
MEEKER         PTSUNNY   56  40  55 VRB5      30.30S
MOUNT WERNER   NOT AVBL
STEAMBOAT SPGS PTSUNNY   52  38  58 SW8       30.31S
WALDEN         PTSUNNY   48  36  61 CALM      30.33F
$$

COZ006>008-011-291900-
...WEST CENTRAL VALLEYS...

CITY           SKY/WX    TMP DP  RH WIND       PRES   REMARKS
GRAND JUNCTION SUNNY     67  39  35 VRB3      30.22F
MONTROSE       SUNNY     65  41  41 N3        30.26F
EAGLE          PTSUNNY   66  39  37 VRB5      30.30F
RIFLE          PTSUNNY   64  38  38 W7        30.25F
DELTA          SUNNY     69  39  33 S5        30.24F
NUCLA          SUNNY     64  34  32 W6        30.28F
$$

COZ017>023-064>068-291900-
...SOUTHWEST COLORADO...

CITY           SKY/WX    TMP DP  RH WIND       PRES   REMARKS
DURANGO        SUNNY     67  31  26 MISG      30.23F
CORTEZ         SUNNY     72  31  22 NW13      30.22S
PAGOSA SPRINGS SUNNY     64  21  19 SE3G10    30.28S
TELLURIDE      MOSUNNY   55  30  39 W10       30.38S
WOLF CREEK PAS NOT AVBL
$$

COZ009-010-012-014-032>034-037-058>063-291900-
...CENTRAL COLORADO...

CITY           SKY/WX    TMP DP  RH WIND       PRES   REMARKS
ASPEN          MOSUNNY   55  30  38 CALM      30.31S
BUENA VISTA    PTSUNNY   58  25  28 W6        30.29F
COPPER MTN     CLOUDY    37  27  65 W14G24    30.46S
BERTHOUD PASS  PTSUNNY   27  19  74 MISG      30.47R
COTTONWOOD PAS MOSUNNY   59  27  29 W3        30.37S
GUNNISON       MOSUNNY   55  34  44 W3        30.34F
KREMMLING      CLOUDY    52  36  54 S3        30.32F
LEADVILLE      PTSUNNY   46  25  43 W13       30.36S
MONARCH PASS   PTSUNNY   34  28  80 W20G30    30.57R WCI  22
SALIDA         CLOUDY    62  28  27 N8        30.34S
SUNLIGHT       PTSUNNY   43  32  65 SW3       30.48R
WILKERSON PASS MOSUNNY   45  23  42 W3        30.46R
$$

COZ069>075-291900-
...SAN LUIS VALLEY/SANGRE DE CRISTO MOUNTAINS...

CITY           SKY/WX    TMP DP  RH WIND       PRES   REMARKS
ALAMOSA        SUNNY     64  29  26 N5        30.26F
LA VETA PASS   SUNNY    N/A N/A N/A MISG      30.39S
SAGUACHE       SUNNY     61  30  31 NW15G24   30.29F
$$

COZ035-036-038>040-291900-
...NORTHERN COLORADO FRONT RANGE...

CITY           SKY/WX    TMP DP  RH WIND       PRES   REMARKS
DENVER INTL AP PTSUNNY   65  44  46 VRB3      30.20F
DMNS CITY PARK   N/A     64  41  42 N7G13     30.19F
AURORA         MOSUNNY   61  41  46 VRB6      30.22S
FRONT RANGE AP PTSUNNY   63  45  51 N7        30.22S
ERIE MUNI ARPT CLOUDY    64  41  42 NE9       30.20S
BOULDER MUN AP CLOUDY    63  41  45 NE7       30.20S
CENTENNIAL     MOSUNNY   63  39  41 NE8       30.21F
BROOMFIELD     PTSUNNY   63  41  45 S6        30.22S
FORT COLLINS   MOSUNNY   63  43  48 W5        30.21S
LONGMONT       CLOUDY    65  44  46 NE8       30.21S
$$

COZ041-046-047-076>085-087-088-291900-
...PIKES PEAK/PALMER DIVIDE AND SOUTHERN FOOTHILLS...

CITY           SKY/WX    TMP DP  RH WIND       PRES   REMARKS
COLO. SPRINGS  PTSUNNY   63  37  38 VRB6      30.22S
A. F. ACADEMY  PTSUNNY   59  37  44 N9        30.22S
ELLICOTT       LGT RAIN N/A N/A N/A E3        30.21S
FALCON         CLOUDY    61  36  39 N9G20     30.25F
FORT CARSON    MOSUNNY   65  45  48 VRB6      30.20S
LIMON          MOSUNNY   62  46  55 N16G23    30.20S
MONUMENT HILL  MOSUNNY   55  37  50 W10G16    30.26S
TRINIDAD       SUNNY     66  46  48 NE7       30.20R
$$

COZ042>045-048>051-090-091-291900-
...NORTHEAST COLORADO...

CITY           SKY/WX    TMP DP  RH WIND       PRES   REMARKS
GREELEY ARPT   PTSUNNY   61  43  51 N15G23    30.19S
AKRON          MOSUNNY   64  50  60 NW14G22   30.16F
BURLINGTON     MOSUNNY   68  50  52 N18G25    30.12F
WRAY           PTSUNNY   69  53  55 N12G18    30.12S
STERLING       MOSUNNY   64  52  63 N17       30.14F
HOLYOKE        MOSUNNY   68  52  56 N12       30.12F
FORT MORGAN    TSTM      55  46  70 N7        30.20R
$$

COZ086-089-092>099-291900-
...SOUTHEAST COLORADO...

CITY           SKY/WX    TMP DP  RH WIND       PRES   REMARKS
PUEBLO         SUNNY     68  47  46 SE7       30.14F
LA JUNTA       PTSUNNY   71  49  45 NE12      30.14R
LAMAR          MOSUNNY   71  52  50 NE13G20   30.10S
SPRINGFIELD      N/A     71  50  47 NE15      30.12S
$$



USA.gov is the U.S. government's official web portal to all federal, state and local government web resources and services.